Voltar ao catálogo

COSMOS 2364

GLONASS

AtivoNavegaçãoMEO
NORAD 25593·PAYLOAD·🇷🇺 Russia

Lançado Dec 30, 1998 de Baikonur Cosmodrome

Loading…

Próximas Passagens (próximas 24 horas)

TLE

AtualizadoSource: Space-Track

Época: Sep 14, 2026, 10:29 UTC

1 25593U 98077A   26257.43736405 -.00000029  00000-0  00000-0 0  9991
2 25593  64.3951  57.0211 0032507  54.7633 299.0854  2.13102844215555

Acompanhe COSMOS 2364 em tempo real com AllMySat

Download on the App Store